STARLINK-11152, 60194

Orbit data source: Space-Track

STARLINK-11152, 60194 is a payload satellite owned by SpaceX/Seattle (US) in LEO that was launched on Wed, 03 Jul 2024 UTC via an FALCON 9 launch vehicle from the Air Force Eastern Test Range (AFETR). Payloads include a variety of satellites, spacecraft, and rockets equipped with specific instruments for various scientific and technological missions. These include communications satellites like Starlink; space stations such as the ISS; scientific satellites like the Hubble; Earth observation satellites from companies like Planet Labs, Umbra, and HawkEye 360; GPS; miniature CubeSats for education and research; and military/defense satellites.

Loading next visibility...
STARLINK-11152 details
Identifier
60194, 2024-124M
Orbit
LEO
Last TLE update15 hours ago
Origin
Flag of USSpaceX/Seattle (US)
ManufacturerSpaceX/Seattle
MissionOperational spacecraft
Bus & MotorSTARLINK V2M, Unknown motor
Mass730 kg wet, ~700 kg dry
Launch date (UTC)
2024-07-03 (6 months ago)
Launch vehicle
FALCON 9
Launch site
Air Force Eastern Test Range (AFETR)
Object type
Payload
Rocket body
Debris
Shape & HBRUnknown
Radar Cross SectionLarge (>1 m²)

Expand to show TLE details & history

TLE from 15 hours ago
0 STARLINK-11152
1 60194U 24124M   24355.91438393 -.00004987  00000-0 -36340-4 0  9992
2 60194  53.1583 188.9387 0001169 122.9808 237.1322 15.69703885 28022
Epoch: 2024-12-20T21:56Z
Definitive object data (Epoch: 2024-12-20T21:56:42.771Z)
Latitude-0.00006°
Longitude129.78739°
Altitude361.087 km
Speed7.694 km/s
True Right ascension12h 35m 45s
True Declination0° 00' 00"
Sunlit
Object was in daylight at TLE epoch
Visualization TLE readout
Latitude-23.71929°
Longitude-34.11355°
Altitude366.513 km
Speed7.69 km/s
Apparent Right ascension00h 45m 54s
Apparent Declination-32° 20' 59"
Sunlit
Object is in daylight
Visualization observer readout
Local Sidereal Time11:37:07
Azimuth293.273° NW
Elevation-74.222°
Doppler factor1
Orbital elements
Apogee altitude360.793 km
Perigee altitude359.218 km
Semi-major axis6,738.142 km
Eccentricity0.0001169
Inclination53.1583°
RAAN188.9387°
Arg. of periapsis122.9808°
True anomaly237.12095°
Mean anomaly237.1322°
Eccentric anomaly237.12657°
Mean motion3.92404 °/min
BSTAR-0.00003634
Orbital period91.74 mins
Loading maneuver chart data...
Loading historical data...
Loading historical data...
Loading historical data...
Loading historical data...
Loading historical data...
Loading historical data...
Loading historical data...

STARLINK-11152 Visibility forecast

Observer location: undefined°, undefined

Span
Click to sort rows by Start time (UTC) header in descending order
Start Az.
Max El. time (UTC)
Max El. Az.
Max El.
End time (UTC)
End Az.
4 mins2024-12-21 16:30:17.905Z270.33° WNW2024-12-21 16:32:17.905Z341.596° N28.256°2024-12-21 16:34:17.905Z30.366° NE
4 mins2024-12-21 22:55:17.905Z287.696° WNW2024-12-21 22:56:17.905Z250.962° W36.295°2024-12-21 22:59:17.905Z147.596° SSE
|